Starlink 34978

operational
NORAD ID: 65435 Int'l Des: 2025-194 Owner: SPXS Country: US Constellation: starlink
LEOCIRCULARRETROGRADESSO

关于 Starlink 34978

正在加载描述...

实时位置

正在加载3D地球...

即将过境

高度历史

Altitude vs Time

uPlot chart will show altitude changes over time

两行轨道根数

1 65435U 25194B 26061.13160961 .00001961 00000-0 14004-3 0 9995
2 65435 97.6030 276.9946 0002154 87.8540 272.2934 15.05649999 28519
Epoch: Mar 2, 2026 • Age: 27 hours

当前状态

高度 577.8 km
速度 7.57 km/s
星下点 -72.94°S, 127.79°W
发射日期 Sep 3, 2025
运行时间 0.4 years
类型 internet

技术详情

分类 Payload
质量 575.00 kg
干质量 530.00 kg
总质量 575.00 kg
长度 0.30 m
直径 4.10 m
跨度 29.00 m
形状 Box + pan
制造商 SPXS
平台类型 Starlink V2MO
阶段状态 In Orbit
所有者/国家 SPXS/US

大型星座

Loading constellations...